Погода в Бахрейне

Бахрейн     26°16′08″N   50°37′34″E
темп.,
°C
ветер,
м/с
пор.,
м/с
влажн.,
%
обл.,
%
осадки,
мм/ч
давл.,
гПа
погр.,
м
10 августа, ср
ср1000:00+35з33617 0.0 99324
03:00+35з55605 0.0 99361
06:00+34сз69715 0.0 994229
09:00+34сз710745 0.0 995310
12:00+34ссз79735 0.0 994304
15:00+34ссз56765 0.0 994290
18:00+33сз328355 0.0 993129
21:00+33св228097 0.0 99587
11 августа, чт
чт1100:00+33всв33775 0.0 994134
03:00+33в457772 0.0 994208
06:00+34зсз22745 0.0 99525
09:00+34с33763 0.0 996202
12:00+34ссв34735 0.0 996238
15:00+35ссв33683 0.0 995159
18:00+35с33705 0.0 99529
21:00+34ссв227011 0.0 99611
12 августа, пт
пт1200:00+34всв33651 0.0 99529
03:00+34ю34665 0.0 99444
06:00+34з33665 0.0 99526
09:00+35сз226223 0.0 99619
12:00+35св32612 0.0 99575
15:00+36св336130 0.0 99432
18:00+36сз445810 0.0 99330
21:00+34ссв677042 0.0 995153
13 августа, сб
сб1300:00+34всв457461 0.0 995158
03:00+34св2269100 0.0 99412
06:00+34сз33670 0.0 99525
09:00+33вюв587695 0.0 996373
12:00+34всв787314 0.0 996278
15:00+33в1011770 0.0 995292
18:00+33в810755 0.0 996316
21:00+34ююв710711 0.0 996247
14 августа, вс
вс1400:00+34всв2270100 0.0 99654
03:00+33св557288 0.0 997413
06:00+33в4472100 0.0 998250
09:00+33юв3371100 0.0 999237
12:00+34вюв2366100 0.0 999158
15:00+35ссв4363100 0.0 997137
18:00+34в5570100 0.0 998102
21:00+34юв5569100 0.0 999102